[[{"header":{"parameterUnit":"m.s-1","parameterCategory":1,"la1":30.2991,"la2":30.254,"lo1":-89.0895,"lo2":-89.0444,"dy":0.0017,"dx":0.0017,"nx":28,"ny":28,"refTime":"2024-08-12T09:00:00:Z","depth":0,"parameterNumber":2,"parameterNumberName":"U-component_of_WINDS"},"data":[0,0,0,0,0,0,0,0,0,0,0,0,0,0,0,0,0,0,0,0,0,0,0,0,0,0,0,0,0,0,0,0,0,0,0,0,0,0,0,0,0,0,0,0,0,0,0,0,0,0,0,0,0,0,0,0,0,0,4.5851,4.5853,0,4.5992,4.5993,4.5995,4.595,4.5947,4.5944,4.5941,4.6084,4.609,4.6097,0,0,0,0,0,0,0,0,0,0,0,0,0,4.5542,4.5548,4.5851,4.5853,4.5855,4.5991,4.5993,4.5995,4.595,4.5947,4.5943,4.594,4.6082,4.6089,4.6097,0,0,0,0,0,0,0,0,0,0,0,0,0,4.5679,4.555,4.5851,4.5849,4.585,4.5991,4.5993,4.5996,4.5951,4.5946,4.5942,4.5938,4.6079,4.6089,4.6098,4.625,0,0,4.6129,4.6133,0,0,0,0,0,0,0,0,4.5671,4.569,4.5847,4.5849,4.5851,4.5949,4.5937,4.6081,4.5952,4.5913,4.5941,4.5936,4.6042,4.6055,4.6091,4.6256,4.6262,4.613,4.6136,4.614,4.6143,0,0,0,0,0,0,0,4.5662,4.5684,4.5907,4.585,4.5852,4.584,4.5855,4.5964,4.6001,4.5916,4.5913,4.593,4.6042,4.6082,4.6094,4.6265,4.6129,4.6138,4.6144,4.6148,4.6558,4.6563,0,0,0,0,0,0,4.5652,4.5677,4.5902,4.5911,4.5748,4.5849,4.5866,4.5922,4.6,4.6007,4.5934,4.5927,4.6067,4.6083,4.6099,4.6279,4.614,4.6149,4.6155,4.6554,4.656,4.6565,0,0,0,0,0,0,4.5645,4.5672,4.5896,4.5793,4.5821,4.586,4.5923,4.5927,4.5966,4.6013,4.602,4.5967,4.6064,4.6085,4.6212,4.6284,4.6153,4.6162,4.6548,4.6555,4.6562,4.6642,0,0,0,0,0,0,4.5637,4.567,4.5728,4.5795,4.5826,4.6008,4.5927,4.5933,4.5983,4.5976,4.6046,4.6054,4.6062,4.6198,4.6222,4.6295,4.617,4.6541,4.6551,4.656,4.6633,4.6651,4.6667,0,0,0,0,0,4.5626,4.5746,4.5732,4.5759,4.59,4.6012,4.603,4.6038,4.5989,4.6048,4.6078,4.6051,4.6272,4.6211,4.6238,4.6315,4.6537,4.6548,4.6559,4.6625,4.6648,4.6666,0,0,0,0,0,0,4.5687,4.5754,4.5739,4.5885,4.5943,4.6004,4.6078,4.6061,4.6134,4.6125,4.6131,4.6147,4.6277,4.6309,4.6239,4.6464,4.6397,4.6414,4.6438,4.646,4.6476,4.6465,4.6178,0,0,0,0,0,4.5717,4.5803,4.5857,4.598,4.601,4.6039,4.6088,4.6089,4.615,4.6174,4.6214,4.6273,4.6355,4.641,4.6489,4.6638,4.6651,4.6704,4.6721,4.6735,4.6749,4.6828,4.6851,4.6602,4.6602,4.6601,0,0,4.578,4.5828,4.5882,4.5993,4.6038,4.6126,4.606,4.6156,4.6221,4.6189,4.631,4.6342,4.6408,4.6546,4.6609,4.6577,4.6821,4.6749,4.6759,4.6766,4.6842,4.6865,4.6886,4.6609,4.6608,4.6607,0,0,4.594,4.5986,4.6092,4.6139,4.6208,4.6227,4.6252,4.6317,4.6336,4.6458,4.6435,4.6512,4.6655,4.6703,4.6746,4.6923,4.6901,4.6949,4.7036,4.7113,4.7133,4.715,4.7211,4.7233,4.6963,4.6964,4.6964,0,4.601,4.6142,4.6149,4.6246,4.6295,4.627,4.6377,4.6422,4.6514,4.6547,4.651,4.6688,4.6731,4.6879,4.6922,4.6959,4.6987,4.694,4.713,4.7147,4.7163,4.7222,4.7245,4.6969,4.6968,4.6968,4.6967,0,4.6223,4.6315,4.6392,4.6481,4.6539,4.664,4.6662,4.672,4.6716,4.6738,4.6862,4.6913,4.7001,4.7037,4.7034,4.7184,4.7162,4.7128,4.706,4.7192,4.7247,4.727,4.6976,4.6974,4.6973,4.6972,0,0,4.6424,4.6515,4.6543,4.6582,4.6657,4.6727,4.6828,4.6914,4.6962,4.7026,4.7109,4.723,4.7199,4.7247,4.725,4.7318,4.7453,4.7275,4.7277,4.7304,4.7619,4.7642,4.7668,4.7439,4.7443,4.7447,4.7612,0,4.6588,4.6764,4.6773,4.6933,4.7016,4.6994,4.7081,4.7136,4.7159,4.7233,4.7259,4.7344,4.7297,4.7326,4.7393,4.7422,4.7515,4.7411,4.7514,4.7518,4.7496,4.7697,4.7722,4.7876,4.7634,4.7637,4.764,0,4.6803,4.6873,4.7041,4.7102,4.7138,4.7216,4.7294,4.7366,4.7427,4.7439,4.7494,4.7486,4.7588,4.7518,4.7657,4.7586,4.7629,4.765,4.7656,4.7664,4.7585,4.7708,4.7925,4.7947,4.7674,4.7672,4.7669,0,4.693,4.7067,4.7184,4.7219,4.7294,4.7349,4.7383,4.7439,4.749,4.7559,4.7591,4.7671,4.7715,4.7776,4.779,4.7739,4.7929,4.7861,4.794,4.794,4.7979,4.7976,4.8204,4.8011,4.8011,4.8011,4.801,0,4.711,4.7213,4.7242,4.7314,4.7428,4.7437,4.755,4.758,4.7631,4.7707,4.7694,4.7766,4.7781,4.7856,4.7868,4.798,4.8,4.8012,4.8013,4.8012,4.801,4.8038,4.8027,4.8017,4.8015,4.8014,4.8013,0,4.727,4.7294,4.742,4.7481,4.7498,4.758,4.7631,4.77,4.7722,4.7819,4.7842,4.7877,4.7964,4.7985,4.8089,4.8097,4.8229,4.8221,4.8208,4.8206,4.8283,4.8275,4.8535,4.8569,4.8357,4.8359,4.8361,0,4.7383,4.7462,4.7531,4.7581,4.7617,4.7699,4.775,4.7762,4.7816,4.7891,4.795,4.8037,4.8106,4.8246,4.828,4.836,4.8352,4.8438,4.8364,4.8359,4.8351,4.8345,4.8351,4.8451,4.8454,4.8456,4.8457,0,4.758,4.7587,4.7662,4.7741,4.7802,4.7865,4.7924,4.7966,4.7986,4.8048,4.8137,4.8191,4.8297,4.8382,4.8461,4.8495,4.8479,4.8481,4.8503,4.85,4.8488,4.8493,4.8243,4.8474,4.8472,4.8471,4.847,4.8469,4.7718,4.7786,4.7844,4.7928,4.7974,4.803,4.8096,4.8127,4.8201,4.8288,4.8291,4.8388,4.8446,4.8551,4.859,4.8665,4.8638,4.8671,4.8679,4.8686,4.8692,4.8479,4.868,4.868,4.8679,4.8679,4.8679,0,4.7911,4.7948,4.8025,4.8108,4.8173,4.8154,4.8218,4.8274,4.8359,4.8415,4.8483,4.8584,4.8666,4.8707,4.8788,4.884,4.8835,4.8861,4.8856,4.8863,4.8712,4.8684,4.8864,4.8864,4.8864,4.8863,4.8863,4.8863,4.802,4.8133,4.8147,4.8282,4.8318,4.8413,4.8451,4.8502,4.8546,4.866,4.8728,4.8754,4.8803,4.8888,4.8962,4.8971,4.9001,4.903,4.9036,4.8893,4.8874,4.8856,4.8829,4.9037,4.9037,4.918,4.9181,4.9182]},{"header":{"parameterUnit":"m.s-1","parameterCategory":1,"la1":30.2991,"la2":30.254,"lo1":-89.0895,"lo2":-89.0444,"dy":0.0017,"dx":0.0017,"nx":28,"ny":28,"refTime":"2024-08-12T09:00:00:Z","depth":0,"parameterNumber":3,"parameterNumberName":"V-component_of_WINDS"},"data":[0,0,0,0,0,0,0,0,0,0,0,0,0,0,0,0,0,0,0,0,0,0,0,0,0,0,0,0,0,0,0,0,0,0,0,0,0,0,0,0,0,0,0,0,0,0,0,0,0,0,0,0,0,0,0,0,0,0,1.9415,1.9416,0,1.9503,1.9504,1.9505,1.9502,1.9501,1.95,1.9498,1.9589,1.9592,1.9596,0,0,0,0,0,0,0,0,0,0,0,0,0,1.9243,1.9246,1.9415,1.9416,1.9417,1.9503,1.9504,1.9505,1.9502,1.9501,1.9499,1.9498,1.9587,1.9592,1.9596,0,0,0,0,0,0,0,0,0,0,0,0,0,1.9323,1.9247,1.9414,1.9426,1.9428,1.9502,1.9504,1.9505,1.9503,1.9501,1.9499,1.9497,1.9586,1.9591,1.9596,1.9666,0,0,1.9613,1.9615,0,0,0,0,0,0,0,0,1.9318,1.9329,1.9423,1.9425,1.9427,1.949,1.9476,1.9559,1.9503,1.9474,1.9498,1.9496,1.9557,1.9565,1.9585,1.967,1.9674,1.9613,1.9616,1.9619,1.962,0,0,0,0,0,0,0,1.9313,1.9325,1.945,1.9424,1.9427,1.9426,1.9435,1.9492,1.9525,1.9477,1.9477,1.9487,1.9558,1.958,1.9587,1.9675,1.9613,1.9618,1.9621,1.9623,1.982,1.9822,0,0,0,0,0,0,1.9305,1.9321,1.9447,1.9452,1.9367,1.9431,1.9441,1.9471,1.9524,1.953,1.9488,1.9487,1.9572,1.9581,1.9591,1.9675,1.9619,1.9624,1.9627,1.9818,1.9821,1.9823,0,0,0,0,0,0,1.9301,1.9316,1.9443,1.9386,1.9403,1.9436,1.947,1.9474,1.9496,1.9533,1.9539,1.9505,1.9571,1.9583,1.9647,1.9678,1.9626,1.9631,1.9816,1.9819,1.9822,1.9844,0,0,0,0,0,0,1.9296,1.9315,1.9342,1.9387,1.9406,1.9499,1.9472,1.9477,1.9506,1.9504,1.955,1.9556,1.957,1.9639,1.9652,1.9684,1.9635,1.9813,1.9817,1.9821,1.9841,1.9847,1.9853,0,0,0,0,0,1.929,1.9345,1.9343,1.9358,1.944,1.95,1.9511,1.9526,1.9508,1.9535,1.9559,1.9555,1.9672,1.9646,1.966,1.9694,1.9811,1.9816,1.9821,1.9838,1.9846,1.9853,0,0,0,0,0,0,1.9302,1.9351,1.935,1.9421,1.9456,1.95,1.9535,1.9534,1.9576,1.9573,1.9589,1.96,1.9664,1.9685,1.9655,1.9764,1.9739,1.9747,1.9747,1.9756,1.9762,1.9755,1.9639,0,0,0,0,0,1.9313,1.9358,1.9398,1.9457,1.9475,1.9502,1.9528,1.9537,1.9574,1.9589,1.9618,1.9654,1.9699,1.9729,1.9772,1.9843,1.9853,1.9874,1.988,1.9885,1.9892,1.9931,1.994,1.9838,1.9838,1.9838,0,0,1.9337,1.9369,1.9396,1.946,1.9489,1.9535,1.9514,1.9564,1.9598,1.9597,1.9659,1.9681,1.9723,1.979,1.9822,1.981,1.9922,1.9891,1.9895,1.9899,1.9937,1.9946,1.9955,1.9841,1.9841,1.984,0,0,1.9402,1.9431,1.9483,1.9512,1.9555,1.9573,1.9585,1.9628,1.9643,1.9705,1.9705,1.9745,1.9823,1.9852,1.9877,1.9953,1.9951,1.9967,2.0,2.0037,2.0045,2.0053,2.0079,2.0089,1.9973,1.9973,1.9973,0,1.9426,1.9495,1.951,1.9559,1.9587,1.9588,1.964,1.9668,1.9723,1.9742,1.9729,1.9825,1.9853,1.9928,1.9946,1.9966,1.9981,1.9962,2.0043,2.0051,2.0057,2.0083,2.0093,1.9975,1.9975,1.9974,1.9974,0,1.9521,1.9569,1.9606,1.9659,1.9691,1.9742,1.9764,1.9794,1.98,1.9818,1.9881,1.9915,1.9965,1.9983,1.9989,2.0058,2.005,2.0039,2.0015,2.0069,2.0093,2.0103,1.9977,1.9976,1.9976,1.9976,0,0,1.9598,1.9658,1.9671,1.9695,1.9743,1.978,1.983,1.9879,1.9905,1.9943,1.9985,2.005,2.0041,2.0069,2.0078,2.0111,2.0168,2.0097,2.0098,2.0109,2.0246,2.0254,2.0265,2.0167,2.0169,2.017,2.0243,0,1.9669,1.9759,1.9773,1.9851,1.9896,1.9896,1.994,1.9974,1.9992,2.0032,2.0052,2.0098,2.0082,2.0099,2.0132,2.0154,2.0196,2.0149,2.0206,2.0208,2.0196,2.0278,2.0286,2.0353,2.0252,2.0254,2.0255,0,1.9764,1.9804,1.9887,1.9927,1.9947,1.9986,2.0031,2.0069,2.0107,2.0118,2.0149,2.0154,2.0206,2.0179,2.025,2.0218,2.0242,2.0256,2.0259,2.0266,2.0235,2.0286,2.0374,2.0384,2.027,2.0269,2.0268,0,1.9811,1.9886,1.9945,1.9966,2.0015,2.0042,2.0064,2.0099,2.0128,2.0167,2.0185,2.023,2.0255,2.0289,2.0306,2.0285,2.0376,2.0351,2.0386,2.0386,2.0406,2.0405,2.05,2.0421,2.0421,2.0421,2.042,0,1.9889,1.994,1.9967,2.0004,2.006,2.0075,2.0131,2.0152,2.0183,2.0224,2.0227,2.0264,2.0284,2.0324,2.0337,2.0394,2.0405,2.0415,2.0418,2.0415,2.0414,2.0431,2.0427,2.0423,2.0423,2.0422,2.0422,0,1.9952,1.9972,2.0037,2.0078,2.0089,2.0129,2.0164,2.0199,2.0216,2.0267,2.028,2.0308,2.0355,2.0375,2.0433,2.0442,2.0507,2.0506,2.0494,2.0495,2.053,2.0526,2.064,2.0655,2.0566,2.0567,2.0568,0,2.0,2.0039,2.0084,2.0111,2.0133,2.0177,2.0206,2.0222,2.0251,2.0296,2.0326,2.0374,2.0412,2.0488,2.0513,2.0558,2.0558,2.0595,2.0565,2.0561,2.0559,2.0556,2.056,2.0601,2.0601,2.0602,2.0603,0,2.0084,2.0091,2.0133,2.0177,2.0211,2.0247,2.0282,2.0304,2.0325,2.0358,2.0407,2.0437,2.0496,2.0543,2.0589,2.061,2.061,2.0612,2.0622,2.062,2.0611,2.0616,2.051,2.0609,2.0609,2.0608,2.0608,2.0608,2.0141,2.0175,2.0212,2.0257,2.0285,2.0317,2.0352,2.0374,2.0415,2.0464,2.0471,2.0523,2.0559,2.062,2.0644,2.0684,2.0675,2.069,2.0694,2.0698,2.07,2.0605,2.0693,2.0692,2.0692,2.0692,2.0692,0,2.0224,2.0248,2.0289,2.0338,2.0373,2.037,2.0408,2.0438,2.0483,2.0517,2.0555,2.061,2.0656,2.0684,2.0729,2.0756,2.0757,2.0768,2.0766,2.0771,2.0706,2.0692,2.0766,2.0766,2.0766,2.0766,2.0766,2.0766,2.0272,2.033,2.0342,2.0413,2.0436,2.0487,2.0509,2.0539,2.0566,2.0627,2.0665,2.0683,2.0714,2.0762,2.0803,2.081,2.0827,2.0838,2.0845,2.0783,2.0776,2.0768,2.0756,2.0842,2.0842,2.0906,2.0907,2.0907]}]]